Location: Drummondville
(45.8830°N, 72.4830°W)
Time: 15:41:36
(UTC-05:00)

ISS - Pass Details

Date: 12 November 2017
Orbit: 402 x 407 km, 51.6° (Epoch: 21 November)

Event Time Altitude Azimuth Distance (km) Brightness Sun altitude
Exits shadow 06:03:12 10° 297° (WNW) 1,442 -1.7 -7.8°
Maximum altitude 06:06:25 85° 213° (SSW) 408 -3.8 -7.3°
Drops below altitude 10° 06:09:41 10° 121° (ESE) 1,451 0.6 -6.7°
Sets 06:11:45 0° 121° (ESE) 2,307 2.1 -6.4°
